weather.gov     
National Weather Service

Regional Weather Roundup
NWS Homepage
This page is being discontinued on March 12, 2014.
The same data is available at this site. Please update your bookmarks.
Thank you, and we apologize for the inconvenience.
Please send an email to SR-SRH.Webmaster@noaa.gov with any concerns.


Current Version
Previous Version:    01  02  03  04  05  06  07  08  09  10  11  12  13  14  15  16  17  18  19  20  21  22  23  24  25  26  27  28  29  30  
   31  32  33  34  35  36  37  38  39  40  41  42  43  44  45  46  47  48  49  50  51  52  53  
[Printable]
641
ASUS43 KTOP 220608
RWRKS

WEATHER ROUNDUP FOR KANSAS
NATIONAL WEATHER SERVICE GOODLAND KS
100 AM CDT WED OCT 22 2014

NOTE:  "FAIR" INDICATES FEW OR NO CLOUDS BELOW 12,000 FEET WITH NO
SIGNIFICANT WEATHER AND/OR OBSTRUCTIONS TO VISIBILITY.

KSZ001>006-013>018-027>032-041>047-220700-
NORTHWEST KANSAS

CITY           SKY/WX    TMP DP  RH WIND       PRES   REMARKS
GOODLAND       CLEAR     54  47  77 S12       29.96S
6HR MIN TEMP:  54; 6HR MAX TEMP:  71;

HAYS           PTCLDY    63  52  67 S10       29.99R
HILL CITY      PTCLDY    61  53  75 S6        29.97S
6HR MIN TEMP:  61; 6HR MAX TEMP:  73;

RUSSELL        PTCLDY    62  55  77 S9        29.98R
6HR MIN TEMP:  62; 6HR MAX TEMP:  70;

$$

KSZ061>065-074>080-084>089-220700-
SOUTHWEST KANSAS

CITY           SKY/WX    TMP DP  RH WIND       PRES   REMARKS
DODGE CITY     CLEAR     60  51  72 S12       30.02S
6HR MIN TEMP:  60; 6HR MAX TEMP:  72;

ELKHART          N/A     57  43  59 S13         N/A
GARDEN CITY    CLEAR     60  50  69 S17       30.00S
6HR MIN TEMP:  60; 6HR MAX TEMP:  70;

GREAT BEND     CLEAR     63  54  72 S10       30.01R
LIBERAL        CLEAR     61  46  59 SE13      30.04S
PRATT          CLEAR     61  54  77 S10       30.03S
$$

KSZ066>073-081>083-090>101-220700-
SOUTHEAST KANSAS

CITY           SKY/WX    TMP DP  RH WIND       PRES   REMARKS
CHANUTE        CLEAR     58  49  72 SE8       30.09S
6HR MIN TEMP:  58; 6HR MAX TEMP:  68;

COFFEYVILLE    CLEAR     58  52  80 CALM      30.08S
6HR MIN TEMP:  58; 6HR MAX TEMP:  70;

HUTCHINSON     CLEAR     63  58  83 SE7       30.03S
6HR MIN TEMP:  63; 6HR MAX TEMP:  72;

MEDICINE LODGE   N/A     63  56  78 SE5       30.02S
NEWTON         CLEAR     61  52  72 SE10      30.06F
PARSONS        CLEAR     63  50  62 VRB3      30.10R
6HR MIN TEMP:  60; 6HR MAX TEMP:  66;

WICHITA INTL   CLEAR     65  59  81 SE12      30.03F
6HR MIN TEMP:  65; 6HR MAX TEMP:  73;

WICHITA JABRA  CLEAR     62  57  83 SE8       30.04F
6HR MIN TEMP:  62; 6HR MAX TEMP:  70;

WICHITA MCCONL CLEAR     64  63  97 SE10      30.05S
WINFIELD       CLEAR     64  61  90 SE7       30.06F
6HR MIN TEMP:  64; 6HR MAX TEMP:  73;

$$

KSZ007>012-019>026-033>040-048>060-102>105-220700-
NORTHEAST KANSAS

CITY           SKY/WX    TMP DP  RH WIND       PRES   REMARKS
CONCORDIA      CLEAR     62  56  80 S15       30.00F
6HR MIN TEMP:  62; 6HR MAX TEMP:  66;

EMPORIA        CLEAR     57  51  80 SE8       30.07F
6HR MIN TEMP:  57; 6HR MAX TEMP:  66;

LAWRENCE       CLEAR     48  44  86 E6        30.10F
6HR MIN TEMP:  47; 6HR MAX TEMP:  62;

MANHATTAN      CLEAR     61  54  77 E3        30.04F
6HR MIN TEMP:  60; 6HR MAX TEMP:  70;

MARYSVILLE     CLEAR     59  45  58 SE9       30.04S
OLATHE IND     CLEAR     56  45  66 E8        30.12S
6HR MIN TEMP:  56; 6HR MAX TEMP:  65;

OLATHE EXE     CLEAR     56  45  66 SE8       30.11S
6HR MIN TEMP:  56; 6HR MAX TEMP:  65;

SALINA         CLEAR     65  57  75 SE12      30.01F
6HR MIN TEMP:  65; 6HR MAX TEMP:  72;

TOPEKA BILLARD PTCLDY    57  47  69 E7        30.09S
6HR MIN TEMP:  56; 6HR MAX TEMP:  65;

TOPEKA FORBES  CLEAR     55  45  68 SE7       30.08F
6HR MIN TEMP:  55; 6HR MAX TEMP:  65;

$$




U.S. Dept. of Commerce
NOAA National Weather Service
1325 East West Highway
Silver Spring, MD 20910
E-mail: w-nws.webmaster@noaa.gov
Page last modified: May 16, 2007
NATIONAL WEATHER SERVICE: for Safety, for Work, for Fun - FOR LIFE